Starlink 2720

operational
NORAD ID: 48653 Int'l Des: 2021-044 Owner: SPXS Country: US Constellation: starlink
LEOCIRCULARSTARLINK_TYPE

Über Starlink 2720

Beschreibung wird geladen...

Live-Position

3D-Globus wird geladen...

Nächste Überflüge

Höhenverlauf

Altitude vs Time

uPlot chart will show altitude changes over time

Zweizeiliger Elementsatz

1 48653U 21044R 26035.37759604 .00007111 00000-0 25183-3 0 9996
2 48653 53.1610 268.5900 0000620 49.4565 310.6490 15.30218158258726
Epoch: 4. Feb. 2026 • Age: 8 hours

Aktueller Status

Höhe 476.0 km
Geschwindigkeit 7.63 km/s
Subsatellitenpunkt 23.56°N, 29.8°E
Startdatum 26. Mai 2021
Alter 4.6 years
Typ internet

Technische Details

Klassifizierung Payload
Masse 260.00 kg
Trockenmasse 248.00 kg
Gesamtmasse 260.00 kg
Länge 0.20 m
Durchmesser 2.80 m
Spannweite 9.00 m
Form Box + pan
Hersteller SPXS
Bus-Typ Starlink
Phasenstatus In Orbit
Besitzer/Staat SPXS/US

Große Konstellationen

Loading constellations...